Location: Dumpton Point
(51.3500°N, 1.4433°E)
Time: 06:11:11
(UTC+00:00)

Altair - Pass Details

Date: 04 October 2022
Orbit: 1501 x 1682 km, 47.2° (Epoch: 26 November)

Event Time Altitude Azimuth Distance (km) Brightness Sun altitude
Rises 10:17:34 0° 286° (WNW) 4,892 9.8 31.3°
Reaches altitude 10° 10:20:53 10° 280° (W) 3,920 9.4 31.5°
Maximum altitude 10:30:08 43° 213° (SSW) 2,228 9.2 32.1°
Drops below altitude 10° 10:39:24 10° 147° (SSE) 3,931 11.0 32.6°
Sets 10:42:45 0° 141° (SE) 4,907 11.1 32.7°
